sat.trackr.live / text

‹ back to catalog

EUTELSAT 7C

NORAD 44334 · 2019-034B

PAYLOAD ACTIVE UNKNOWN

§ Identity

Operator
Country
EUTE
Launch date
2019-06-20
Launch site
FRGUI
Launch vehicle
Mass (kg)
RCS (m²)

Purposes: comms

External: N2YO · Heavens-Above · Gunter

§ Orbital elements

Epoch: 2026-05-25T03:46:39.567360Z

Period
1,436.11 min
Inclination
0.0749°
Eccentricity
0.0003166
Mean motion
1.00271032 rev/d
Perigee alt
35,773.5 km
Apogee alt
35,800.2 km
Semi-major
42,164.9 km
B*
0.0000e+0
RAAN
175.3796°
Arg perigee
229.3546°
Mean anomaly
261.6817°
Rev number
660

§ Raw data

EUTELSAT 7C1 44334U 19034B   26145.15740240  .00000046  00000+0  00000+0 0  99942 44334   0.0749 175.3796 0003166 229.3546 261.6817  1.00271032  6604

JSON: /api/v1/satellites/44334 · /tle

For live sub-satellite position, see the globe view (requires WebGL).

§ Visibility from observer

Set your observer location to see the next 7 days of passes ≥ 10°. The values pass through the URL so the page stays shareable.

No JS? Fill the form by hand. The geolocation button needs JavaScript.